Date String (YYYY-MM-DD hh:mm:ss) UTC,Instrument flags,absolute air pressure of the measurement (hPa),sample flow rate (lpm),inlet stack bypass flow (lpm),air temperature of the measurement (°C),ambient temperature measured by the external sensor (°C),aerosol sample conditioner tube jacket temperature (°C),OPC LED temperature (°C),internal box temperature (°C),relative humidity of the measurement (%),span deviation,mass concentration of particles derived from Lorenz-Mie calculation of OPC scattering (μg/m³),mass concentration of particles derived from Lorenz-Mie calculation of OPC scattering (μg/m³),mass concentration of particles derived from Lorenz-Mie calculation of OPC scattering (μg/m³)
DateTimeUTC,F1_M11,P_M11,Q1_M11,Q2_M11,T1_M11,T2_M11,T3_M11,T4_M11,T5_M11,U1_M11,ZSPAN_M11,X0_M11,X2_M11,X1_M11
2024-03-01 22:00:00,SystemResetWarning,0821.8,5.00,000.00,025.2,024.5,000.0,033.3,026.9,08.6,0000.0,0006.29,0002.35,0001.24
2024-03-01 22:01:00,SystemResetWarning,0822.0,5.00,000.00,025.2,024.5,000.0,033.3,027.0,08.6,0000.0,0005.32,0002.26,0001.23
2024-03-01 22:02:00,SystemResetWarning,0822.1,5.00,000.00,025.2,024.6,000.0,033.4,027.0,08.6,0000.0,0005.60,0002.33,0001.22
2024-03-01 22:03:00,SystemResetWarning,0821.8,5.00,000.00,025.2,024.6,000.0,033.4,027.0,08.5,0000.0,0005.44,0002.34,0001.21
2024-03-01 22:04:00,SystemResetWarning,0821.5,5.00,000.00,025.3,024.6,000.0,033.4,027.0,08.4,0000.0,0005.28,0002.42,0001.21
2024-03-01 22:05:00,SystemResetWarning,0821.6,5.00,000.00,025.3,024.6,000.0,033.4,027.0,08.4,0000.0,0005.26,0002.44,0001.20
2024-03-01 22:06:00,SystemResetWarning,0821.6,4.99,000.00,025.3,024.6,000.0,033.4,027.0,08.5,0000.0,0005.22,0002.41,0001.20
2024-03-01 22:07:00,SystemResetWarning,0821.6,4.99,000.00,025.3,024.6,000.0,033.4,027.1,08.8,0000.0,0005.51,0002.41,0001.19
2024-03-01 22:08:00,SystemResetWarning,0821.6,5.00,000.00,025.3,024.6,000.0,033.4,027.1,08.7,0000.0,0005.96,0002.42,0001.21
2024-03-01 22:09:00,SystemResetWarning,0821.8,5.00,000.00,025.3,024.6,000.0,033.4,027.1,08.5,0000.0,0005.93,0002.43,0001.20
2024-03-01 22:10:00,SystemResetWarning,0821.6,5.00,000.00,025.3,024.7,000.0,033.4,027.1,08.3,0000.0,0006.23,0002.50,0001.20
2024-03-01 22:11:00,SystemResetWarning,0821.6,5.00,000.00,025.4,024.7,000.0,033.4,027.1,08.3,0000.0,0006.91,0002.51,0001.20
2024-03-01 22:12:00,SystemResetWarning,0821.6,5.00,000.00,025.4,024.7,000.0,033.5,027.1,08.3,0000.0,0007.03,0002.53,0001.21
2024-03-01 22:13:00,SystemResetWarning,0821.6,5.00,000.00,025.4,024.7,000.0,033.5,027.1,08.4,0000.0,0006.48,0002.45,0001.21
2024-03-01 22:14:00,SystemResetWarning,0821.6,5.00,000.00,025.4,024.7,000.0,033.5,027.1,08.5,0000.0,0006.38,0002.40,0001.20
2024-03-01 22:15:00,SystemResetWarning,0821.6,4.99,000.00,025.4,024.8,000.0,033.5,027.1,08.3,0000.0,0006.28,0002.32,0001.19
2024-03-01 22:16:00,SystemResetWarning,0821.7,4.99,000.00,025.4,024.8,000.0,033.5,027.2,08.2,0000.0,0006.14,0002.27,0001.18
2024-03-01 22:17:00,SystemResetWarning,0821.6,5.00,000.00,025.5,024.8,000.0,033.5,027.2,08.1,0000.0,0006.08,0002.27,0001.18
2024-03-01 22:18:00,SystemResetWarning,0821.6,5.00,000.00,025.5,024.8,000.0,033.5,027.2,08.2,0000.0,0006.04,0002.31,0001.17
2024-03-01 22:19:00,SystemResetWarning,0821.7,5.00,000.00,025.5,024.8,000.0,033.6,027.2,08.1,0000.0,0005.51,0002.26,0001.15
2024-03-01 22:20:00,SystemResetWarning,0821.6,5.00,000.00,025.5,024.8,000.0,033.6,027.2,08.3,0000.0,0005.43,0002.25,0001.14
2024-03-01 22:21:00,SystemResetWarning,0821.6,5.00,000.00,025.5,024.9,000.0,033.6,027.3,08.2,0000.0,0005.25,0002.21,0001.13
2024-03-01 22:22:00,SystemResetWarning,0821.6,5.01,000.00,025.5,024.9,000.0,033.6,027.3,08.1,0000.0,0004.79,0002.17,0001.13
2024-03-01 22:23:00,SystemResetWarning,0821.6,5.00,000.00,025.6,024.9,000.0,033.6,027.3,08.1,0000.0,0004.61,0002.24,0001.12
2024-03-01 22:24:00,SystemResetWarning,0821.6,5.00,000.00,025.6,024.9,000.0,033.6,027.3,08.1,0000.0,0004.69,0002.28,0001.11
2024-03-01 22:25:00,SystemResetWarning,0821.6,5.00,000.00,025.6,024.9,000.0,033.7,027.3,08.2,0000.0,0004.63,0002.24,0001.11
2024-03-01 22:26:00,SystemResetWarning,0821.6,5.00,000.00,025.6,024.9,000.0,033.7,027.3,08.5,0000.0,0004.61,0002.24,0001.11
2024-03-01 22:27:00,SystemResetWarning,0821.7,5.00,000.00,025.6,024.9,000.0,033.7,027.3,08.5,0000.0,0005.24,0002.32,0001.13
2024-03-01 22:28:00,SystemResetWarning,0821.7,4.99,000.00,025.6,024.9,000.0,033.7,027.4,08.2,0000.0,0006.43,0002.35,0001.12
2024-03-01 22:29:00,SystemResetWarning,0821.7,5.00,000.00,025.6,025.0,000.0,033.7,027.4,08.3,0000.0,0006.71,0002.39,0001.13
2024-03-01 22:30:00,SystemResetWarning,0821.7,5.00,000.00,025.6,025.0,000.0,033.7,027.4,08.4,0000.0,0007.30,0002.46,0001.14
2024-03-01 22:31:00,SystemResetWarning,0821.7,4.99,000.00,025.7,025.0,000.0,033.8,027.4,08.4,0000.0,0007.81,0002.41,0001.14
2024-03-01 22:32:00,SystemResetWarning,0821.8,5.01,000.00,025.7,025.0,000.0,033.8,027.4,08.4,0000.0,0008.07,0002.43,0001.13
2024-03-01 22:33:00,SystemResetWarning,0821.8,5.01,000.00,025.7,025.0,000.0,033.8,027.5,08.3,0000.0,0008.72,0002.42,0001.12
2024-03-01 22:34:00,SystemResetWarning,0821.8,5.00,000.00,025.7,025.1,000.0,033.8,027.5,08.1,0000.0,0008.88,0002.35,0001.12
2024-03-01 22:35:00,SystemResetWarning,0821.7,4.99,000.00,025.7,025.1,000.0,033.8,027.5,08.1,0000.0,0008.91,0002.34,0001.12
2024-03-01 22:36:00,SystemResetWarning,0821.7,4.99,000.00,025.7,025.1,000.0,033.9,027.5,07.9,0000.0,0008.95,0002.35,0001.13
2024-03-01 22:37:00,SystemResetWarning,0821.7,5.01,000.00,025.8,025.1,000.0,033.9,027.6,08.0,0000.0,0008.92,0002.31,0001.12
2024-03-01 22:38:00,SystemResetWarning,0821.7,5.01,000.00,025.8,025.1,000.0,033.9,027.6,08.0,0000.0,0008.77,0002.20,0001.10
2024-03-01 22:39:00,SystemResetWarning,0821.7,5.00,000.00,025.8,025.1,000.0,033.9,027.6,08.1,0000.0,0008.48,0002.16,0001.10
2024-03-01 22:40:00,SystemResetWarning,0821.7,4.99,000.00,025.8,025.2,000.0,033.9,027.6,08.3,0000.0,0008.43,0002.15,0001.11
2024-03-01 22:41:00,SystemResetWarning,0821.7,5.00,000.00,025.8,025.2,000.0,033.9,027.6,08.2,0000.0,0008.11,0002.07,0001.11
2024-03-01 22:42:00,SystemResetWarning,0821.6,4.99,000.00,025.9,025.2,000.0,034.0,027.6,08.2,0000.0,0007.61,0002.02,0001.10
2024-03-01 22:43:00,SystemResetWarning,0821.6,5.00,000.00,025.9,025.2,000.0,034.0,027.6,08.6,0000.0,0008.55,0002.03,0001.11
2024-03-01 22:44:00,SystemResetWarning,0821.6,5.00,000.00,025.9,025.2,000.0,034.0,027.6,08.6,0000.0,0007.95,0002.04,0001.13
2024-03-01 22:45:00,SystemResetWarning,0821.6,5.01,000.00,025.9,025.2,000.0,034.0,027.7,08.7,0000.0,0007.63,0002.04,0001.13
2024-03-01 22:46:00,SystemResetWarning,0821.6,5.01,000.00,025.9,025.2,000.0,034.0,027.6,08.7,0000.0,0007.60,0002.02,0001.13
2024-03-01 22:47:00,SystemResetWarning,0821.8,4.98,000.00,025.9,025.2,000.0,034.1,027.6,08.8,0000.0,0007.61,0002.01,0001.12
2024-03-01 22:48:00,SystemResetWarning,0822.1,5.00,000.00,025.9,025.2,000.0,034.1,027.7,08.5,0000.0,0007.60,0002.01,0001.12
2024-03-01 22:49:00,SystemResetWarning,0822.0,5.00,000.00,026.0,025.3,000.0,034.1,027.7,08.4,0000.0,0007.63,0002.07,0001.12
2024-03-01 22:50:00,SystemResetWarning,0821.8,5.01,000.00,026.0,025.3,000.0,034.1,027.7,08.5,0000.0,0007.12,0002.11,0001.12
2024-03-01 22:51:00,SystemResetWarning,0821.9,5.00,000.00,026.0,025.3,000.0,034.1,027.7,08.7,0000.0,0006.99,0002.07,0001.11
2024-03-01 22:52:00,SystemResetWarning,0822.0,5.00,000.00,026.0,025.2,000.0,034.2,027.7,08.7,0000.0,0007.46,0002.06,0001.09
2024-03-01 22:53:00,SystemResetWarning,0821.9,5.00,000.00,026.0,025.2,000.0,034.2,027.7,08.7,0000.0,0007.50,0002.10,0001.10
2024-03-01 22:54:00,SystemResetWarning,0822.0,5.00,000.00,026.0,025.2,000.0,034.2,027.8,08.7,0000.0,0005.80,0002.16,0001.09
2024-03-01 22:55:00,SystemResetWarning,0821.7,5.00,000.00,026.0,025.2,000.0,034.2,027.7,08.8,0000.0,0005.49,0002.09,0001.08
2024-03-01 22:56:00,SystemResetWarning,0822.0,4.99,000.00,026.0,025.2,000.0,034.2,027.8,08.6,0000.0,0005.20,0002.06,0001.08
2024-03-01 22:57:00,SystemResetWarning,0821.7,4.99,000.00,026.0,025.2,000.0,034.2,027.8,08.7,0000.0,0005.28,0002.09,0001.08
2024-03-01 22:58:00,SystemResetWarning,0821.9,5.01,000.00,026.0,025.2,000.0,034.2,027.8,08.5,0000.0,0005.46,0002.19,0001.09
2024-03-01 22:59:00,SystemResetWarning,0821.9,5.01,000.00,026.0,025.2,000.0,034.3,027.8,08.8,0000.0,0005.71,0002.31,0001.11
